Location: Centerville
(32.8776°N, 96.6203°W)
Time: 08:44:49
(UTC+00:00)

Tiangong - Visible Passes

Search period start: 04 December 2022 00:00
Search period end: 14 December 2022 00:00
Orbit: 386 x 394 km, 41.5° (Epoch: 03 December)

Date Brightness Start Highest point End Pass type
(mag) Time Alt. Az. Time Alt. Az. Time Alt. Az.
04 Dec 0.5 01:07:09 10° NW 01:08:09 14° NNW 01:08:09 14° NNW visible
05 Dec -0.1 00:08:49 10° NW 00:11:07 18° N 00:12:53 12° NNE visible
06 Dec 0.0 00:48:13 10° NW 00:49:56 17° N 00:49:56 17° N visible
06 Dec -0.1 23:50:00 10° NW 23:52:11 17° N 23:54:22 10° NE visible
07 Dec 1.0 01:26:55 10° NW 01:27:00 10° NW 01:27:00 10° NW visible
08 Dec -0.6 00:28:55 10° NW 00:31:27 22° NNE 00:31:47 21° NNE visible
09 Dec -0.2 01:07:26 10° NW 01:08:58 24° NW 01:08:58 24° NW visible
10 Dec -1.1 00:09:22 10° NW 00:12:14 30° NNE 00:13:56 18° ENE visible
10 Dec 1.4 01:46:10 10° WNW 01:46:16 11° WNW 01:46:16 11° WNW visible
11 Dec -2.2 00:47:52 10° WNW 00:51:03 88° SSW 00:51:23 69° SE visible
11 Dec -1.9 23:49:39 10° NW 23:52:46 51° NNE 23:55:53 10° ESE visible
12 Dec 0.5 01:27:04 10° W 01:29:06 20° SW 01:29:06 20° SW visible
13 Dec -0.8 00:28:21 10° WNW 00:31:21 39° SW 00:34:20 10° SE visible
